Weather History for West Plains, MO

Change the Weather History Date:

Wednesday, January 1, 2014

  Actual Average Record
Temperature  
Mean Temperature 38 °F 34 °F  
Max Temperature 47 °F 44 °F 69 °F (1965)
Min Temperature 28 °F 24 °F 0 °F (1974)
Degree Days  
Heating Degree Days 27 31  
Month to date heating degree days 27 31  
Since 1 July heating degree days 1784 1776  
Cooling Degree Days 0 0  
Month to date cooling degree days 0 0  
Year to date cooling degree days 0 0  
Moisture  
Dew Point 27 °F    
Average Humidity 65    
Maximum Humidity 85    
Minimum Humidity 45    
Precipitation  
Precipitation 0.00 in 0.06 in 2.79 in (1966)
Month to date precipitation 0.00 0.06  
Year to date precipitation 0.00 0.06  
Sea Level Pressure  
Sea Level Pressure 30.07 in    
Wind  
Wind Speed 7 mph (SSE)    
Max Wind Speed 17 mph    
Max Gust Speed 25 mph    
Visibility 10 miles    
Events      
T = Trace of Precipitation, MM = Missing Value Source: NWS Daily Summary

Daily Weather History Graph

Daily Weather History Graph

Search for Another Location

Airport:

Trip Planner

Search our weather history database for the weather conditions in past years. The results will help you decide how hot, cold, wet, or windy it might be!

Date:

Astronomy

Jan. 01, 2014 Rise Set
Actual Time 7:20 AM CST 5:02 PM CST
Civil Twilight 6:51 AM CST 5:30 PM CST
Nautical Twilight 6:19 AM CST 6:03 PM CST
Astronomical Twilight 5:47 AM CST 6:34 PM CST
Moon 7:12 AM CST (1/1) 5:45 PM CST (1/1)
Length of Visible Light 10h 39m
Length of Day
9h 41m
New Moon, 0% of the Moon is Illuminated
Jan 1
New Moon
Jan 7
First Quarter
Jan 15
Full
Jan 23
Last Quarter
Jan 30
New

Hourly Weather History & Observations

Time (CST) Temp. Windchill Dew Point Humidity Pressure Visibility Wind Dir Wind Speed Gust Speed Precip Events Conditions
12:53 AM 33.1 °F 27.7 °F 26.1 °F 75% 30.21 in 10.0 mi South 5.8 mph - N/A   Clear
1:53 AM 33.1 °F 26.1 °F 26.1 °F 75% 30.19 in 10.0 mi SSW 8.1 mph - N/A   Clear
2:53 AM 33.1 °F 28.7 °F 26.1 °F 75% 30.18 in 10.0 mi SSW 4.6 mph - N/A   Clear
3:53 AM 33.1 °F 26.9 °F 26.1 °F 75% 30.16 in 10.0 mi South 6.9 mph - N/A   Clear
4:53 AM 32.0 °F 26.4 °F 25.0 °F 75% 30.15 in 10.0 mi South 5.8 mph - N/A   Clear
5:53 AM 30.0 °F 24.1 °F 24.1 °F 79% 30.14 in 10.0 mi SSE 5.8 mph - N/A   Clear
6:53 AM 28.9 °F 23.9 °F 24.1 °F 82% 30.14 in 10.0 mi SSE 4.6 mph - N/A   Clear
7:53 AM 28.0 °F 22.8 °F 24.1 °F 85% 30.16 in 10.0 mi SSE 4.6 mph - N/A   Clear
8:53 AM 32.0 °F 26.4 °F 26.1 °F 79% 30.16 in 10.0 mi South 5.8 mph - N/A   Clear
9:53 AM 35.1 °F 29.3 °F 26.1 °F 70% 30.16 in 10.0 mi SSE 6.9 mph - N/A   Clear
10:53 AM 39.9 °F 35.1 °F 26.1 °F 58% 30.14 in 10.0 mi SE 6.9 mph - N/A   Clear
11:53 AM 43.0 °F 38.2 °F 25.0 °F 49% 30.10 in 10.0 mi South 8.1 mph - N/A   Clear
12:53 PM 45.0 °F 40.6 °F 26.1 °F 48% 30.05 in 10.0 mi SSE 8.1 mph - N/A   Clear
1:53 PM 46.0 °F 41.9 °F 26.1 °F 46% 30.01 in 10.0 mi SE 8.1 mph - N/A   Clear
2:53 PM 46.9 °F - 27.0 °F 46% 29.99 in 10.0 mi SE 8.1 mph - N/A   Mostly Cloudy
3:53 PM 46.0 °F 42.5 °F 28.9 °F 51% 29.97 in 10.0 mi SE 6.9 mph - N/A   Scattered Clouds
4:53 PM 45.0 °F 41.2 °F 28.9 °F 53% 29.95 in 10.0 mi SE 6.9 mph - N/A   Overcast
5:53 PM 45.0 °F 40.1 °F 30.0 °F 56% 29.95 in 10.0 mi SE 9.2 mph - N/A   Overcast
6:53 PM 42.1 °F 40.2 °F 30.9 °F 65% 29.99 in 10.0 mi SSE 3.5 mph - N/A   Clear
7:53 PM 41.0 °F 39.0 °F 32.0 °F 70% 29.98 in 10.0 mi SE 3.5 mph - N/A   Overcast
8:53 PM 41.0 °F - 32.0 °F 70% 29.97 in 10.0 mi Calm Calm - N/A   Overcast
9:53 PM 39.9 °F 35.8 °F 32.0 °F 73% 29.98 in 10.0 mi North 5.8 mph - N/A   Overcast
10:53 PM 39.9 °F 32.9 °F 32.0 °F 73% 29.98 in 10.0 mi NNW 11.5 mph - N/A   Overcast
11:53 PM 30.9 °F 19.8 °F 23.0 °F 72% 30.02 in 10.0 mi North 16.1 mph - N/A   Overcast